Location: Beaurecueil
(43.5122°N, 5.5450°E)
Time: 07:28:51
(UTC+00:00)

Cosmos 1939 Rocket - Pass Details

Date: 20 January 2021
Orbit: 531 x 585 km, 97.4° (Epoch: 04 March)

Event Time Altitude Azimuth Distance (km) Brightness Sun altitude
Rises 17:38:12 0° 168° (SSE) 2,794 6.5 -11.7°
Reaches altitude 10° 17:40:22 10° 170° (S) 1,896 5.6 -12.1°
Maximum altitude 17:44:29 82° 258° (WSW) 592 3.0 -12.8°
Drops below altitude 10° 17:48:36 10° 346° (NNW) 1,892 5.5 -13.5°
Sets 17:50:45 0° 347° (NNW) 2,788 6.4 -13.9°
